Weather History for KHTL - September, 2013

Change the Weather History Date:

Saturday, September 7, 2013

  Actual Average Record
Temperature  
Mean Temperature 72 °F 60 °F  
Max Temperature 79 °F 72 °F 92 °F (1985)
Min Temperature 65 °F 48 °F 30 °F (1924)
Degree Days  
Heating Degree Days 0 6  
Month to date heating degree days 31 35  
Since 1 July heating degree days 156 162  
Cooling Degree Days 7 1  
Month to date cooling degree days 7 7  
Year to date cooling degree days 353 272  
Growing Degree Days 22 (Base 50)    
Moisture  
Dew Point 63 °F    
Average Humidity 77    
Maximum Humidity 90    
Minimum Humidity 63    
Precipitation  
Precipitation 0.14 in 0.10 in 0.83 in (1938)
Month to date precipitation 0.30 0.72  
Year to date precipitation 20.40 19.84  
Sea Level Pressure  
Sea Level Pressure 29.95 in    
Wind  
Wind Speed 6 mph (West)    
Max Wind Speed 10 mph    
Max Gust Speed 17 mph    
Visibility 9 miles    
Events Rain    
T = Trace of Precipitation, MM = Missing Value Source: NWS Daily Summary

Daily Weather History Graph

Daily Weather History Graph

Search for Another Location

Airport or City:

Trip Planner

Search our weather history database for the weather conditions in past years. The results will help you decide how hot, cold, wet, or windy it might be!

Date:

Astronomy

Sep. 07, 2013 Rise Set
Actual Time 7:08 AM EDT 8:03 PM EDT
Civil Twilight 6:39 AM EDT 8:33 PM EDT
Nautical Twilight 6:03 AM EDT 9:08 PM EDT
Astronomical Twilight 5:26 AM EDT 9:44 PM EDT
Moon 9:29 AM EDT (9/7) 8:53 PM EDT (9/7)
Length of Visible Light 13h 53m
Length of Day
12h 54m
Waxing Crescent, 5% of the Moon is Illuminated
Sep 7
Waxing Crescent
Sep 12
First Quarter
Sep 19
Full
Sep 26
Last Quarter
Oct 4
New

Hourly Weather History & Observations

Time (EDT) Temp. Dew Point Humidity Pressure Visibility Wind Dir Wind Speed Gust Speed Precip Events Conditions
12:53 AM 66.0 °F 54.0 °F 65% 30.01 in 10.0 mi SW 5.8 mph - N/A   Mostly Cloudy
1:53 AM 66.0 °F 54.0 °F 65% 30.00 in 10.0 mi SW 6.9 mph - 0.00 in   Mostly Cloudy
2:53 AM 66.0 °F 55.9 °F 70% 29.99 in 10.0 mi SW 6.9 mph - N/A   Overcast
3:53 AM 66.0 °F 55.9 °F 70% 29.98 in 10.0 mi SW 5.8 mph - N/A   Overcast
4:53 AM 66.0 °F 57.9 °F 75% 29.96 in 10.0 mi WSW 4.6 mph - N/A   Partly Cloudy
5:53 AM 66.0 °F 59.0 °F 78% 29.94 in 10.0 mi WSW 6.9 mph - N/A   Overcast
6:53 AM 66.9 °F 61.0 °F 81% 29.95 in 10.0 mi WSW 4.6 mph - N/A   Overcast
7:53 AM 64.9 °F 63.0 °F 93% 29.95 in 2.5 mi South 6.9 mph - 0.09 in Rain Rain
8:02 AM 64.4 °F 62.6 °F 94% 29.96 in 7.0 mi SSW 5.8 mph - 0.01 in Rain Light Rain
8:53 AM 64.9 °F 64.0 °F 97% 29.94 in 10.0 mi SSW 4.6 mph - 0.03 in   Mostly Cloudy
9:53 AM 68.0 °F 64.9 °F 90% 29.93 in 10.0 mi WSW 4.6 mph - N/A   Scattered Clouds
10:53 AM 70.0 °F 66.0 °F 87% 29.91 in 10.0 mi SW 6.9 mph - N/A   Overcast
11:53 AM 73.0 °F 66.0 °F 79% 29.94 in 10.0 mi West 5.8 mph - N/A   Mostly Cloudy
12:53 PM 72.0 °F 64.9 °F 78% 29.93 in 10.0 mi West 4.6 mph - 0.00 in Rain Light Rain
1:53 PM 73.0 °F 66.9 °F 81% 29.91 in 10.0 mi SW 6.9 mph - 0.02 in   Partly Cloudy
2:53 PM 75.9 °F 66.9 °F 74% 29.89 in 10.0 mi WSW 6.9 mph - N/A   Clear
3:53 PM 77.0 °F 66.0 °F 69% 29.88 in 10.0 mi West 4.6 mph - N/A   Partly Cloudy
4:53 PM 78.1 °F 66.9 °F 68% 29.89 in 10.0 mi West 8.1 mph - N/A   Mostly Cloudy
5:53 PM 77.0 °F 66.9 °F 71% 29.90 in 10.0 mi NW 5.8 mph - N/A   Overcast
6:53 PM 77.0 °F 66.9 °F 71% 29.90 in 10.0 mi NNW 8.1 mph - N/A   Overcast
7:53 PM 73.9 °F 66.9 °F 79% 29.91 in 10.0 mi NNW 4.6 mph - N/A   Mostly Cloudy
8:53 PM 72.0 °F 66.0 °F 81% 29.94 in 10.0 mi North 5.8 mph - N/A   Clear
9:53 PM 70.0 °F 66.0 °F 87% 29.96 in 10.0 mi North 5.8 mph - N/A   Scattered Clouds
10:02 PM 69.8 °F 66.2 °F 88% 29.96 in 10.0 mi North 4.6 mph - N/A   Mostly Cloudy
10:33 PM 69.8 °F 66.2 °F 88% 29.97 in 10.0 mi North 4.6 mph - N/A   Scattered Clouds
10:46 PM 69.8 °F 66.2 °F 88% 29.98 in 10.0 mi NNE 4.6 mph - N/A   Mostly Cloudy
10:53 PM 69.1 °F 66.0 °F 90% 29.97 in 10.0 mi NNE 4.6 mph - N/A   Mostly Cloudy
11:17 PM 69.8 °F 66.2 °F 88% 29.99 in 10.0 mi NNE 9.2 mph - N/A   Overcast
11:53 PM 69.1 °F 64.9 °F 87% 29.99 in 10.0 mi NNE 9.2 mph - N/A   Overcast